Location: Harbor Hills
(33.7803°N, 118.3148°W)
Time: 05:34:44
(UTC+00:00)

USA 229 DEB - Pass Details

Date: 05 August 2024
Orbit: 881 x 1330 km, 63.4° (Epoch: 31 August)

Event Time Altitude Azimuth Distance (km) Brightness Sun altitude
Rises 12:03:37 0° 329° (NNW) 4,073 6.7 -13.0°
Reaches altitude 10° 12:06:16 10° 329° (NNW) 3,164 6.2 -12.5°
Maximum altitude 12:14:01 87° 243° (WSW) 1,292 4.1 -11.1°
Drops below altitude 10° 12:22:17 10° 153° (SSE) 3,350 6.3 -9.6°
Sets 12:25:10 0° 153° (SSE) 4,325 6.9 -9.1°
